• In Uzbekistan
  • List of Countries
  • For 7 days
  • Water Temperature
  • Satellite Maps
  • Weather Map
  • Weather Widgets
  • user-avatar
    Login

    Hourly Weather Sydney

    Today, 26 July, Wednesday

    Time Temperature Precipitation Wind Pressure Humidity
    00:00 +13°C° 0 mm 5 mps 762 mmHg 57%
    01:00 +13°C° 0 mm 6 mps 762 mmHg 56%
    02:00 +13°C° 0 mm 6 mps 762 mmHg 56%
    03:00 +13°C° 0 mm 6 mps 761 mmHg 55%
    04:00 +13°C° 0 mm 6 mps 761 mmHg 53%
    05:00 +13°C° 0 mm 6 mps 761 mmHg 55%
    06:00 +14°C° 0 mm 6 mps 761 mmHg 57%
    07:00 +14°C° 0 mm 7 mps 761 mmHg 59%
    08:00 +16°C° 0 mm 7 mps 761 mmHg 53%
    09:00 +17°C° 0 mm 7 mps 761 mmHg 47%
    10:00 +20°C° 0 mm 7 mps 761 mmHg 41%
    11:00 +21°C° 0 mm 7 mps 761 mmHg 37%
    12:00 +21°C° 0 mm 7 mps 761 mmHg 34%
    13:00 +22°C° 0 mm 7 mps 761 mmHg 30%
    14:00 +21°C° 0 mm 7 mps 761 mmHg 32%
    15:00 +20°C° 0 mm 7 mps 761 mmHg 33%
    16:00 +20°C° 0 mm 7 mps 761 mmHg 35%
    17:00 +17°C° 0 mm 7 mps 762 mmHg 41%
    18:00 +15°C° 0 mm 7 mps 763 mmHg 47%
    19:00 +12°C° 0 mm 7 mps 763 mmHg 52%
    20:00 +11°C° 0 mm 7 mps 764 mmHg 55%
    21:00 +11°C° 0 mm 6 mps 765 mmHg 59%
    22:00 +10°C° 0 mm 6 mps 765 mmHg 62%
    23:00 +10°C° 0 mm 6 mps 766 mmHg 65%

    Tomorrow, 27 July, Thursday

    Time Temperature Precipitation Wind Pressure Humidity
    00:00 +9°C° 0 mm 5 mps 766 mmHg 69%
    01:00 +8°C° 0 mm 5 mps 766 mmHg 72%
    02:00 +8°C° 0 mm 5 mps 766 mmHg 75%
    03:00 +7°C° 0 mm 5 mps 766 mmHg 78%
    04:00 +7°C° 0 mm 4 mps 767 mmHg 81%
    05:00 +7°C° 0 mm 4 mps 767 mmHg 82%
    06:00 +6°C° 0 mm 4 mps 767 mmHg 84%
    07:00 +6°C° 0 mm 4 mps 768 mmHg 86%
    08:00 +9°C° 0 mm 3 mps 768 mmHg 73%
    09:00 +12°C° 0 mm 3 mps 768 mmHg 61%
    10:00 +14°C° 0 mm 3 mps 768 mmHg 49%
    11:00 +17°C° 0 mm 2 mps 768 mmHg 44%
    12:00 +18°C° 0 mm 2 mps 767 mmHg 38%
    13:00 +20°C° 0 mm 1 mps 767 mmHg 33%
    14:00 +19°C° 0 mm 2 mps 766 mmHg 35%
    15:00 +18°C° 0 mm 2 mps 766 mmHg 36%
    16:00 +17°C° 0 mm 2 mps 766 mmHg 38%
    17:00 +16°C° 0 mm 3 mps 766 mmHg 45%
    18:00 +13°C° 0 mm 3 mps 766 mmHg 53%
    19:00 +11°C° 0 mm 3 mps 767 mmHg 61%
    20:00 +11°C° 0 mm 4 mps 767 mmHg 64%
    21:00 +10°C° 0 mm 4 mps 767 mmHg 67%
    22:00 +10°C° 0 mm 4 mps 767 mmHg 71%
    23:00 +8°C° 0 mm 5 mps 766 mmHg 69%

    Day after tomorrow, 28 July, Friday

    Time Temperature Precipitation Wind Pressure Humidity
    00:00 +8°C° 0 mm 5 mps 766 mmHg 67%
    01:00 +8°C° 0 mm 5 mps 766 mmHg 65%
    02:00 +8°C° 0 mm 5 mps 765 mmHg 63%
    03:00 +8°C° 0 mm 5 mps 764 mmHg 61%
    04:00 +8°C° 0 mm 5 mps 764 mmHg 60%
    05:00 +8°C° 0 mm 5 mps 764 mmHg 58%
    06:00 +8°C° 0 mm 5 mps 764 mmHg 56%
    07:00 +9°C° 0 mm 5 mps 764 mmHg 53%
    08:00 +12°C° 0 mm 5 mps 764 mmHg 48%
    09:00 +15°C° 0 mm 5 mps 764 mmHg 43%
    10:00 +19°C° 0 mm 4 mps 763 mmHg 37%
    11:00 +20°C° 0 mm 4 mps 763 mmHg 35%
    12:00 +21°C° 0 mm 4 mps 762 mmHg 32%
    13:00 +22°C° 0 mm 4 mps 762 mmHg 30%
    14:00 +22°C° 0 mm 4 mps 762 mmHg 29%
    15:00 +21°C° 0 mm 5 mps 762 mmHg 27%
    16:00 +21°C° 0 mm 5 mps 762 mmHg 26%
    17:00 +19°C° 0 mm 5 mps 762 mmHg 31%
    18:00 +15°C° 0 mm 5 mps 763 mmHg 35%
    19:00 +13°C° 0 mm 5 mps 764 mmHg 39%
    20:00 +12°C° 0 mm 5 mps 764 mmHg 44%
    21:00 +10°C° 0 mm 5 mps 765 mmHg 49%
    22:00 +9°C° 0 mm 5 mps 765 mmHg 53%
    23:00 +8°C° 0 mm 4 mps 765 mmHg 56%

    29 July, Saturday

    Time Temperature Precipitation Wind Pressure Humidity
    00:00 +8°C° 0 mm 4 mps 765 mmHg 59%
    01:00 +7°C° 0 mm 4 mps 765 mmHg 62%
    02:00 +7°C° 0 mm 4 mps 765 mmHg 64%
    03:00 +7°C° 0 mm 3 mps 764 mmHg 66%
    04:00 +7°C° 0 mm 3 mps 764 mmHg 68%
    05:00 +5°C° 0 mm 3 mps 765 mmHg 67%
    06:00 +5°C° 0 mm 3 mps 765 mmHg 67%
    07:00 +5°C° 0 mm 3 mps 765 mmHg 66%
    08:00 +9°C° 0 mm 3 mps 765 mmHg 55%
    09:00 +12°C° 0 mm 3 mps 765 mmHg 43%
    10:00 +16°C° 0 mm 3 mps 764 mmHg 32%
    11:00 +18°C° 0 mm 3 mps 763 mmHg 28%
    12:00 +21°C° 0 mm 3 mps 763 mmHg 23%
    13:00 +24°C° 0 mm 3 mps 762 mmHg 19%
    14:00 +24°C° 0 mm 3 mps 761 mmHg 22%
    15:00 +23°C° 0 mm 4 mps 761 mmHg 25%
    16:00 +23°C° 0 mm 4 mps 761 mmHg 28%
    17:00 +21°C° 0 mm 4 mps 761 mmHg 33%
    18:00 +19°C° 0 mm 4 mps 761 mmHg 38%
    19:00 +17°C° 0 mm 4 mps 761 mmHg 43%
    20:00 +15°C° 0 mm 4 mps 761 mmHg 45%
    21:00 +15°C° 0 mm 4 mps 761 mmHg 47%
    22:00 +14°C° 0 mm 4 mps 762 mmHg 48%
    23:00 +14°C° 0 mm 5 mps 761 mmHg 48%

    30 July, Sunday

    Time Temperature Precipitation Wind Pressure Humidity
    00:00 +14°C° 0 mm 5 mps 761 mmHg 47%
    01:00 +15°C° 0 mm 5 mps 761 mmHg 47%
    02:00 +15°C° 0 mm 6 mps 761 mmHg 46%
    03:00 +15°C° 0 mm 6 mps 760 mmHg 46%
    04:00 +15°C° 0 mm 6 mps 760 mmHg 45%
    05:00 +15°C° 0 mm 6 mps 760 mmHg 44%
    06:00 +15°C° 0 mm 6 mps 761 mmHg 43%
    07:00 +15°C° 0 mm 6 mps 761 mmHg 42%
    08:00 +19°C° 0 mm 6 mps 761 mmHg 37%
    09:00 +22°C° 0 mm 6 mps 761 mmHg 31%
    10:00 +24°C° 0 mm 6 mps 761 mmHg 25%
    11:00 +27°C° 0 mm 6 mps 760 mmHg 23%
    12:00 +28°C° 0 mm 6 mps 760 mmHg 21%
    13:00 +29°C° 0 mm 6 mps 759 mmHg 19%
    14:00 +28°C° 0 mm 6 mps 759 mmHg 21%
    15:00 +28°C° 0 mm 5 mps 759 mmHg 22%
    16:00 +27°C° 0 mm 5 mps 759 mmHg 24%
    17:00 +25°C° 0 mm 4 mps 759 mmHg 28%
    18:00 +22°C° 0 mm 4 mps 760 mmHg 32%
    19:00 +19°C° 0 mm 3 mps 761 mmHg 36%
    20:00 +19°C° 0 mm 3 mps 761 mmHg 39%
    21:00 +18°C° 0 mm 3 mps 761 mmHg 42%
    22:00 +17°C° 0 mm 3 mps 761 mmHg 45%
    23:00 +16°C° 0 mm 3 mps 761 mmHg 51%

    31 July, Monday

    Time Temperature Precipitation Wind Pressure Humidity
    00:00 +14°C° 0 mm 3 mps 761 mmHg 58%
    01:00 +13°C° 0 mm 3 mps 761 mmHg 64%
    02:00 +13°C° 0 mm 3 mps 761 mmHg 67%
    03:00 +13°C° 0 mm 3 mps 761 mmHg 69%
    04:00 +12°C° 0 mm 3 mps 761 mmHg 72%
    05:00 +12°C° 0.4 mm 3 mps 761 mmHg 76%
    06:00 +12°C° 0.4 mm 3 mps 762 mmHg 79%
    07:00 +12°C° 0.4 mm 3 mps 762 mmHg 83%
    08:00 +12°C° 1.4 mm 3 mps 762 mmHg 86%
    09:00 +12°C° 1.4 mm 3 mps 762 mmHg 88%
    10:00 +12°C° 1.4 mm 3 mps 762 mmHg 91%
    11:00 +12°C° 0.9 mm 4 mps 762 mmHg 89%
    12:00 +12°C° 0.9 mm 4 mps 762 mmHg 88%
    13:00 +13°C° 0.9 mm 5 mps 761 mmHg 86%
    14:00 +12°C° 0.3 mm 5 mps 761 mmHg 85%
    15:00 +12°C° 0.3 mm 5 mps 761 mmHg 84%
    16:00 +12°C° 0.3 mm 5 mps 761 mmHg 83%
    17:00 +10°C° 0 mm 5 mps 761 mmHg 85%
    18:00 +10°C° 0 mm 5 mps 762 mmHg 87%
    19:00 +9°C° 0 mm 5 mps 762 mmHg 88%
    20:00 +9°C° 0 mm 5 mps 762 mmHg 88%
    21:00 +8°C° 0 mm 5 mps 762 mmHg 87%
    22:00 +8°C° 0 mm 6 mps 762 mmHg 86%
    23:00 +8°C° 0 mm 6 mps 762 mmHg 84%
    Show more